Watertown, SD

1:43 PM CST on February 26, 2017 (GMT -0600)
Watertown Municipal

Weather History for KATY - October, 2013

Change the Weather History Date:

Thursday, October 3, 2013

  Actual Average Record
Temperature  
Mean Temperature 50 °F 51 °F  
Max Temperature 52 °F 63 °F 90 °F (1938)
Min Temperature 48 °F 40 °F 20 °F (1989)
Degree Days  
Heating Degree Days 15 14  
Month to date heating degree days 28 41  
Since 1 July heating degree days 164 317  
Cooling Degree Days 0 0  
Month to date cooling degree days 0 0  
Year to date cooling degree days 618 513  
Moisture  
Dew Point 49 °F    
Average Humidity 97    
Maximum Humidity 100    
Minimum Humidity 93    
Precipitation  
Precipitation 0.22 in 0.08 in 1.70 in (1990)
Month to date precipitation 0.22 0.24  
Year to date precipitation 20.16 19.11  
Snow  
Snow 0.00 in - - ()
Month to date snowfall 0.0  
Since 1 July snowfall 0.0  
Snow Depth 0.00 in    
Sea Level Pressure  
Sea Level Pressure 29.91 in    
Wind  
Wind Speed 15 mph (NE)    
Max Wind Speed 23 mph    
Max Gust Speed 30 mph    
Visibility 6 miles    
Events Fog , Rain , Thunderstorm    
T = Trace of Precipitation, MM = Missing Value Source: NWS Daily Summary

Daily Weather History Graph

Daily Weather History Graph

Search for Another Location

Airport or City:

Trip Planner

Search our weather history database for the weather conditions in past years. The results will help you decide how hot, cold, wet, or windy it might be!

Date:

Astronomy

Oct. 03, 2013 Rise Set
Actual Time 7:29 AM CDT 7:04 PM CDT
Civil Twilight 7:00 AM CDT 7:34 PM CDT
Nautical Twilight 6:26 AM CDT 8:07 PM CDT
Astronomical Twilight 5:51 AM CDT 8:42 PM CDT
Moon 6:01 AM CDT (10/3) 6:14 PM CDT (10/3)
Length of Visible Light 12h 33m
Length of Day
11h 35m
Waning Crescent, 2% of the Moon is Illuminated
Oct 3
Waning Crescent
Oct 4
New
Oct 11
First Quarter
Oct 18
Full
Oct 26
Last Quarter

Hourly Weather History & Observations

Time (CDT) Temp. Dew Point Humidity Pressure Visibility Wind Dir Wind Speed Gust Speed Precip Events Conditions
12:53 AM 50.0 °F 48.9 °F 96% 29.88 in 10.0 mi NNE 12.7 mph - N/A   Overcast
1:53 AM 50.0 °F 48.0 °F 93% 29.88 in 10.0 mi NE 13.8 mph - N/A   Overcast
2:53 AM 50.0 °F 48.0 °F 93% 29.87 in 10.0 mi NE 10.4 mph - N/A   Overcast
3:53 AM 48.9 °F 48.0 °F 97% 29.88 in 10.0 mi NE 10.4 mph - N/A   Overcast
4:02 AM 48.2 °F 48.2 °F 100% 29.88 in 10.0 mi NE 10.4 mph - N/A   Overcast
4:53 AM 48.9 °F 48.0 °F 97% 29.89 in 7.0 mi ENE 9.2 mph - N/A   Overcast
5:18 AM 48.2 °F 48.2 °F 100% 29.88 in 2.0 mi NE 10.4 mph - N/A   Overcast
5:25 AM 48.2 °F 48.2 °F 100% 29.88 in 1.5 mi NE 10.4 mph - N/A   Overcast
5:36 AM 48.2 °F 48.2 °F 100% 29.87 in 1.0 mi NE 12.7 mph - N/A   Overcast
5:45 AM 48.2 °F 48.2 °F 100% 29.87 in 0.8 mi NE 11.5 mph - N/A   Mist
5:53 AM 48.0 °F 48.0 °F 100% 29.88 in 0.8 mi NE 10.4 mph - N/A   Mist
6:53 AM 48.0 °F 48.0 °F 100% 29.90 in 0.8 mi NE 10.4 mph - N/A   Mist
7:02 AM 48.2 °F 48.2 °F 100% 29.88 in 1.2 mi NE 11.5 mph - N/A   Overcast
7:27 AM 48.2 °F 48.2 °F 100% 29.88 in 0.8 mi NE 10.4 mph - N/A   Mist
7:53 AM 48.0 °F 48.0 °F 100% 29.89 in 0.5 mi NE 12.7 mph - N/A Fog Fog
8:18 AM 48.2 °F 48.2 °F 100% 29.87 in 1.5 mi NE 12.7 mph - N/A   Overcast
8:53 AM 48.9 °F 48.9 °F 100% 29.90 in 3.0 mi NNE 9.2 mph - N/A   Overcast
9:13 AM 48.2 °F 48.2 °F 100% 29.88 in 1.8 mi NNE 12.7 mph - N/A   Overcast
9:22 AM 48.2 °F 48.2 °F 100% 29.89 in 1.0 mi NNE 13.8 mph - N/A   Overcast
9:30 AM 48.2 °F 48.2 °F 100% 29.89 in 0.8 mi NNE 15.0 mph - N/A   Overcast
9:43 AM 48.2 °F 48.2 °F 100% 29.89 in 1.5 mi NNE 16.1 mph - N/A   Overcast
9:48 AM 48.2 °F 48.2 °F 100% 29.89 in 3.0 mi NNE 12.7 mph 21.9 mph N/A   Overcast
9:53 AM 48.9 °F 48.9 °F 100% 29.91 in 3.0 mi NNE 15.0 mph - 0.00 in Rain Light Rain
10:46 AM 48.2 °F 48.2 °F 100% 29.89 in 10.0 mi NNE 16.1 mph - 0.02 in   Overcast
10:53 AM 48.9 °F 48.9 °F 100% 29.91 in 10.0 mi NNE 19.6 mph 26.5 mph 0.02 in   Overcast
11:06 AM 48.2 °F 48.2 °F 100% 29.90 in 10.0 mi NNE 16.1 mph 25.3 mph N/A Thunderstorm Overcast
11:21 AM 50.0 °F 48.2 °F 94% 29.91 in 10.0 mi NNE 16.1 mph - N/A   Overcast
11:31 AM 50.0 °F 48.2 °F 94% 29.91 in 10.0 mi NNE 13.8 mph - N/A   Overcast
11:53 AM 50.0 °F 48.9 °F 96% 29.92 in 10.0 mi NE 17.3 mph - N/A   Overcast
12:53 PM 50.0 °F 48.9 °F 96% 29.92 in 10.0 mi NE 15.0 mph 24.2 mph 0.01 in Rain Light Rain
1:46 PM 51.8 °F 50.0 °F 94% 29.89 in 1.8 mi ENE 17.3 mph 23.0 mph 0.11 in Rain Heavy Rain
1:53 PM 51.1 °F 50.0 °F 96% 29.90 in 2.5 mi ENE 15.0 mph 23.0 mph 0.13 in Rain Rain
2:02 PM 51.8 °F 50.0 °F 94% 29.88 in 4.0 mi ENE 12.7 mph 21.9 mph 0.01 in Rain Light Rain
2:53 PM 51.1 °F 50.0 °F 96% 29.86 in 6.0 mi East 17.3 mph 23.0 mph 0.04 in Rain Light Rain
3:53 PM 51.1 °F 50.0 °F 96% 29.92 in 10.0 mi NE 11.5 mph - 0.02 in   Overcast
4:53 PM 51.1 °F 50.0 °F 96% 29.91 in 10.0 mi NE 16.1 mph - N/A   Overcast
5:53 PM 52.0 °F 50.0 °F 93% 29.93 in 10.0 mi NE 16.1 mph 21.9 mph N/A   Overcast
6:53 PM 52.0 °F 51.1 °F 97% 29.92 in 10.0 mi NE 18.4 mph 26.5 mph N/A   Overcast
7:53 PM 52.0 °F 50.0 °F 93% 29.96 in 10.0 mi NNE 15.0 mph 26.5 mph N/A   Overcast
8:53 PM 52.0 °F 50.0 °F 93% 29.97 in 10.0 mi NE 18.4 mph 29.9 mph N/A   Overcast
8:59 PM 51.8 °F 50.0 °F 94% 29.96 in 10.0 mi NE 19.6 mph 29.9 mph N/A   Overcast
9:08 PM 51.8 °F 50.0 °F 94% 29.96 in 10.0 mi NE 20.7 mph 28.8 mph N/A   Overcast
9:35 PM 51.8 °F 50.0 °F 94% 29.97 in 10.0 mi NE 17.3 mph 24.2 mph N/A   Overcast
9:42 PM 51.8 °F 50.0 °F 94% 29.98 in 10.0 mi NNE 18.4 mph 24.2 mph N/A   Overcast
9:53 PM 51.1 °F 50.0 °F 96% 30.00 in 10.0 mi NE 15.0 mph 21.9 mph N/A   Overcast
11:53 PM 50.0 °F 48.9 °F 96% 29.98 in 5.0 mi NE 19.6 mph 24.2 mph N/A   Overcast